{"data":{"norad_id":56425,"intl_designator":"2023-061BD","name":"STARLINK-6224","alt_names":[],"object_type":"PAYLOAD","status":"ACTIVE","operator":null,"country":"US","launch_date":"2023-05-04","launch_site_code":"AFETR","launch_vehicle":null,"mission":null,"orbit_class":"UNKNOWN","rcs_meters":null,"size_class":null,"mass_kg":null,"dimensions":null,"purposes":["comms"],"wikipedia_slug":null,"has_3d_model":false,"image_url":null,"decayed_at":null,"tle_current":{"epoch":"2026-05-25T03:48:10.026432Z","epoch_age_seconds":62191,"freshness":"FRESH","line1":"1 56425U 23061BD  26145.15844938  .00000564  00000+0  30711-4 0  9994","line2":"2 56425  43.0065 107.7794 0001468 293.5244  66.5453 15.26741899168652","mean_motion":15.26741899,"eccentricity":0.0001468,"inclination_deg":43.0065,"raan_deg":107.7794,"arg_perigee_deg":293.5244,"mean_anomaly_deg":66.5453,"bstar":3.0711e-5,"rev_number":16865,"period_min":94.318496200516,"perigee_km":484.55222919672,"apogee_km":486.56741058303,"semimajor_km":6863.6968198899,"source":"CELESTRAK","updated_at":"2026-05-25T13:38:18.064592Z"}}}